GW3318 Weather Reports


time (UTC)temp
C
wind
direction
speed
KPH
gust
KPH
rain 1hr
cm
rain 24hr
cm
rain mn
cm
humidity
%
barometer
mb
20260505101813 21 285 0.0 3.2 0.05 1.75 1.73 93 1012.5
20260505101314 21 46 0.0 4.8 0.03 1.73 1.70 93 1012.4
20260505100813 21 60 0.0 4.8 0.00 1.70 1.68 93 1012.4
20260505100313 21 71 0.0 1.6 0.00 1.70 1.68 93 1012.3
20260505095813 21 71 1.6 8.0 0.00 1.70 1.68 92 1012.4
20260505095313 21 285 1.6 4.8 0.00 1.70 1.68 92 1012.2
20260505094813 21 81 3.2 8.0 0.00 1.70 1.68 92 1012.1
20260505094313 21 310 3.2 8.0 0.00 1.70 1.68 92 1012.0
20260505093313 21 75 1.6 8.0 0.00 1.70 1.68 91 1012.0
20260505092813 21 332 0.0 3.2 0.00 1.70 1.68 90 1012.0
20260505091813 21 328 0.0 4.8 0.00 1.70 1.68 90 1012.0
20260505091314 21 327 0.0 4.8 0.00 1.70 1.68 90 1012.0
20260505090813 21 285 0.0 3.2 0.00 1.70 1.68 90 1012.0
20260505090313 21 16 1.6 4.8 0.00 1.70 1.68 90 1011.9
20260505085813 21 104 0.0 4.8 0.00 1.70 1.68 90 1011.9
20260505085314 21 84 1.6 4.8 0.00 1.70 1.68 90 1011.9
20260505084812 21 71 3.2 11.3 0.00 1.70 1.68 90 1011.9
20260505084313 21 35 1.6 4.8 0.00 1.70 1.68 90 1012.0
20260505083813 21 36 3.2 8.0 0.00 1.70 1.68 90 1012.0
20260505083314 21 124 1.6 4.8 0.00 1.70 1.68 90 1012.1
20260505082812 21 78 1.6 4.8 0.00 1.70 1.68 90 1012.0
20260505082313 21 58 1.6 4.8 0.00 1.70 1.68 90 1011.9
20260505081813 21 138 1.6 11.3 0.00 1.70 1.68 90 1012.0
20260505081312 22 353 1.6 4.8 0.00 1.70 1.68 89 1012.0
20260505080812 22 103 3.2 8.0 0.00 1.70 1.68 89 1012.0
20260505080312 22 6 1.6 4.8 0.00 1.70 1.68 89 1012.0
20260505075812 22 10 1.6 4.8 0.00 1.70 1.68 89 1011.9
20260505075313 22 28 1.6 4.8 0.00 1.70 1.68 89 1012.0
20260505074813 22 55 0.0 4.8 0.00 1.70 1.68 90 1012.0
20260505074312 22 108 1.6 4.8 0.00 1.70 1.68 90 1011.9
20260505073813 22 29 1.6 8.0 0.00 1.70 1.68 89 1012.0
20260505072813 22 137 1.6 3.2 0.00 1.70 1.68 90 1012.3
20260505072313 22 170 1.6 3.2 0.00 1.70 1.68 89 1012.3
20260505071813 22 135 1.6 4.8 0.00 1.70 1.68 89 1012.4
20260505071313 22 104 1.6 4.8 0.00 1.70 1.68 89 1012.4
20260505070813 22 251 0.0 1.6 0.00 1.70 1.68 89 1012.4
20260505070313 22 206 0.0 1.6 0.00 1.70 1.68 90 1012.5
20260505065813 22 132 0.0 1.6 0.00 1.70 1.68 90 1012.5
20260505065313 22 110 0.0 4.8 0.00 1.70 1.68 90 1012.4
20260505064813 22 136 1.6 4.8 0.00 1.70 1.68 90 1012.6
20260505064313 22 295 1.6 8.0 0.00 1.70 1.68 89 1012.7
20260505063813 22 15 1.6 4.8 0.00 1.70 1.68 89 1012.7
20260505063313 22 161 1.6 4.8 0.00 1.70 1.68 88 1013.0
20260505062813 22 262 0.0 0.0 0.00 1.70 1.68 89 1013.0
20260505062313 22 311 1.6 4.8 0.00 1.70 1.68 89 1013.1
20260505061313 23 274 0.0 1.6 0.03 1.70 1.68 88 1013.0
20260505060812 23 244 1.6 3.2 0.03 1.73 1.68 87 1013.1
20260505060312 23 251 1.6 4.8 0.03 1.80 1.68 86 1013.1
20260505055812 23 238 1.6 4.8 0.03 1.88 1.68 88 1013.1
20260505055312 23 262 1.6 4.8 0.03 1.98 1.68 88 1013.2
20260505054813 23 305 0.0 3.2 0.03 2.06 1.68 87 1013.1
20260505054312 23 234 0.0 1.6 0.03 2.11 1.68 86 1013.2
20260505053813 23 193 0.0 1.6 0.03 2.18 1.68 86 1013.2
20260505053312 23 228 0.0 0.0 0.05 2.21 1.68 88 1013.3
20260505052813 23 215 0.0 3.2 0.05 2.26 1.68 88 1013.3
20260505052313 22 269 0.0 1.6 0.05 2.29 1.68 89 1013.4
20260505051813 22 256 0.0 1.6 0.08 2.31 1.68 91 1013.6
20260505051313 22 292 0.0 0.0 0.05 2.31 1.65 89 1013.6
20260505050812 22 330 0.0 1.6 0.05 2.31 1.65 90 1013.8
20260505041312 21 219 0.0 1.6 0.10 2.84 1.60 92 1014.4
20260505035813 21 201 0.0 3.2 0.20 3.07 1.60 92 1014.8
20260505035313 21 212 1.6 3.2 0.23 3.10 1.60 92 1014.8
20260505034812 21 228 0.0 0.0 0.23 3.12 1.60 92 1014.7
20260505033814 21 229 0.0 0.0 0.23 3.17 1.57 93 1014.8
20260505033313 21 229 0.0 0.0 0.25 3.23 1.57 92 1014.7
20260505032312 21 229 0.0 0.0 0.25 3.25 1.55 94 1014.8
20260505031813 20 229 0.0 1.6 0.23 3.25 1.52 93 1014.9
20260505030813 20 229 0.0 0.0 0.20 3.23 1.47 94 1015.1
20260505025812 20 229 0.0 3.2 0.20 3.20 1.40 94 1015.2
20260505025312 21 242 0.0 1.6 0.23 3.20 1.37 95 1015.2
20260505024813 21 242 0.0 1.6 0.28 3.20 1.37 94 1015.1
20260505024313 21 228 0.0 0.0 0.30 3.20 1.37 94 1015.1
20260505023812 21 225 0.0 0.0 0.28 3.17 1.35 94 1015.2
20260505023312 20 223 1.6 4.8 0.28 3.15 1.32 93 1015.2
20260505022812 20 228 3.2 4.8 0.33 3.15 1.32 92 1015.2
20260505022312 21 246 0.0 0.0 0.38 3.12 1.30 94 1015.1
20260505021812 20 246 0.0 1.6 0.46 3.12 1.30 93 1015.1
20260505021312 20 243 1.6 3.2 0.51 3.10 1.27 93 1015.2
20260505020812 20 232 3.2 8.0 0.58 3.10 1.27 92 1015.0
20260505020313 20 247 1.6 8.0 0.64 3.10 1.24 92 1015.0
20260505015813 20 301 3.2 4.8 0.66 3.05 1.19 92 1014.9
20260505014813 20 353 1.6 12.9 0.64 3.15 1.09 92 1014.8
20260505014314 20 331 3.2 14.5 0.64 3.15 1.07 92 1014.9
20260505013813 20 244 3.2 9.7 0.66 3.15 1.07 92 1015.0
20260505013313 20 285 3.2 12.9 0.66 3.12 1.04 93 1015.0
20260505010812 20 254 0.0 4.8 0.48 2.77 0.69 92 1015.1
20260505010313 20 243 1.6 8.0 0.41 2.69 0.61 92 1015.1
20260505005812 20 8 3.2 12.9 0.33 2.62 0.53 91 1015.0
20260505005312 20 341 8.0 19.3 0.25 2.54 0.46 91 1014.9
20260505004312 20 28 3.2 16.1 0.23 2.51 0.43 91 1014.8
20260505003812 20 14 8.0 19.3 0.20 2.49 0.41 91 1014.7
20260505003312 20 35 6.4 19.3 0.18 2.46 0.38 91 1014.6
20260505002813 20 37 4.8 19.3 0.15 2.44 0.36 91 1014.5
20260505001813 20 29 6.4 16.1 0.10 2.39 0.30 91 1014.4
20260505001313 20 28 4.8 19.3 0.05 2.34 0.25 90 1014.5
20260504235313 20 76 11.3 22.5 0.03 2.29 0.20 89 1014.2
20260504234312 20 28 9.7 20.9 0.03 2.29 0.20 89 1014.1
20260504233812 20 89 8.0 19.3 0.03 2.29 0.20 89 1014.1
20260504233314 20 18 9.7 20.9 0.03 2.29 0.20 89 1014.1
20260504232813 20 42 8.0 19.3 0.03 2.29 0.20 89 1013.9
20260504232311 20 39 11.3 27.4 0.03 2.29 0.20 89 1013.7
20260504231812 20 19 9.7 32.2 0.05 2.29 0.20 89 1013.6
20260504231312 20 53 14.5 33.8 0.08 2.29 0.20 88 1013.4
20260504230813 20 45 16.1 27.4 0.10 2.26 0.18 87 1013.3
20260504230312 20 55 12.9 32.2 0.15 2.26 0.18 87 1013.4
20260504225812 20 43 9.7 20.9 0.18 2.26 0.18 88 1013.6
20260504225312 20 75 4.8 24.1 0.18 2.26 0.18 88 1013.8
20260504224812 20 85 8.0 22.5 0.18 2.26 0.18 88 1013.8
20260504224312 20 78 4.8 19.3 0.18 2.26 0.18 88 1013.8
20260504223812 20 31 3.2 20.9 0.18 2.26 0.18 89 1013.6
20260504223313 20 80 6.4 19.3 0.18 2.26 0.18 88 1013.6
20260504222812 20 87 8.0 14.5 0.18 2.26 0.18 88 1013.5
20260504222312 20 48 6.4 19.3 0.18 2.26 0.18 88 1013.5
20260504221812 21 47 4.8 19.3 0.15 2.24 0.15 87 1013.5
20260504221313 21 47 4.8 14.5 0.13 2.21 0.13 86 1013.5
20260504220811 21 88 4.8 14.5 0.08 2.16 0.08 85 1013.7
20260504220311 21 112 6.4 14.5 0.03 2.11 0.03 84 1013.4
20260504215812 21 56 6.4 16.1 0.00 2.08 0.00 83 1013.5
20260504215312 21 58 4.8 16.1 0.00 2.08 0.00 81 1013.7
20260504214812 21 88 8.0 14.5 0.00 2.08 0.00 81 1013.8
20260504214312 21 31 3.2 14.5 0.00 2.08 0.00 81 1013.6
20260504213312 21 50 6.4 20.9 0.00 2.08 0.00 81 1013.3
20260504212813 21 342 8.0 32.2 0.00 2.08 0.00 82 1013.1
20260504212312 21 40 8.0 24.1 0.00 2.08 0.00 82 1013.1
20260504211812 21 59 6.4 20.9 0.00 2.08 0.00 82 1013.1
20260504211312 21 55 9.7 19.3 0.00 2.08 0.00 82 1013.1
20260504210812 21 71 8.0 19.3 0.00 2.08 0.00 82 1012.9
20260504210312 21 70 9.7 22.5 0.00 2.08 0.00 82 1012.9
20260504205812 21 73 6.4 16.1 0.00 2.08 0.00 82 1013.1
20260504205312 21 62 9.7 24.1 0.00 2.08 0.00 82 1013.2
20260504204812 21 20 4.8 19.3 0.00 2.08 0.00 82 1013.2
20260504204312 21 84 9.7 20.9 0.00 2.08 0.00 83 1013.2
20260504203812 21 60 8.0 19.3 0.00 2.08 0.00 83 1013.3
20260504203312 22 58 9.7 22.5 0.00 2.08 0.00 83 1013.2
20260504202813 22 38 9.7 22.5 0.00 2.08 0.00 83 1013.2
20260504202312 22 51 8.0 22.5 0.00 2.08 0.00 83 1013.2
20260504201811 22 37 9.7 19.3 0.00 2.08 0.00 82 1013.2
20260504201312 22 28 12.9 24.1 0.00 2.08 0.00 83 1013.1
20260504200812 22 35 8.0 20.9 0.00 2.08 0.00 83 1013.0
20260504200312 22 50 8.0 22.5 0.00 2.08 0.00 83 1012.9
20260504195311 22 51 8.0 24.1 0.00 2.08 0.00 83 1012.9
20260504194812 22 37 9.7 19.3 0.00 2.08 0.00 83 1012.9
20260504194312 22 45 9.7 19.3 0.00 2.08 0.00 83 1013.0
20260504193812 22 54 9.7 24.1 0.00 2.08 0.00 83 1013.0
20260504193311 22 59 9.7 20.9 0.00 2.08 0.00 83 1013.0
20260504192811 22 49 9.7 19.3 0.00 2.08 0.00 83 1013.0
20260504192311 22 69 11.3 22.5 0.00 2.08 0.00 83 1013.0
20260504191813 22 40 11.3 22.5 0.00 2.08 0.00 84 1013.1
20260504191312 22 53 11.3 32.2 0.00 2.08 0.00 84 1013.1
20260504190811 22 55 11.3 22.5 0.00 2.08 0.00 84 1013.1
20260504190312 22 57 11.3 22.5 0.00 2.08 0.00 84 1013.0
20260504185812 22 96 9.7 22.5 0.00 2.08 0.00 84 1012.9
20260504185312 22 34 11.3 25.7 0.00 2.08 0.00 84 1013.0
20260504184812 22 68 11.3 22.5 0.00 2.08 0.00 85 1013.1
20260504184311 22 54 9.7 20.9 0.00 2.08 0.00 84 1013.2
20260504183811 22 51 11.3 25.7 0.00 2.08 0.00 84 1013.2
20260504183311 22 58 11.3 22.5 0.00 2.08 0.00 84 1013.3
20260504182812 22 58 9.7 32.2 0.00 2.08 0.00 84 1013.3
20260504182311 22 50 11.3 24.1 0.00 2.08 0.00 84 1013.3
20260504181812 22 35 9.7 27.4 0.00 2.08 0.00 84 1013.3
20260504181311 22 71 11.3 20.9 0.00 2.08 0.00 84 1013.5
20260504175811 22 54 8.0 16.1 0.00 2.08 0.00 84 1014.0
20260504175312 22 35 9.7 20.9 0.00 2.08 0.00 84 1014.1
20260504174812 22 54 11.3 22.5 0.00 2.08 0.00 84 1014.3
20260504174311 22 69 9.7 19.3 0.00 2.08 0.00 84 1014.2
20260504173811 22 52 9.7 19.3 0.00 2.08 0.00 84 1014.2
20260504173312 22 52 8.0 22.5 0.00 2.08 0.00 84 1014.1
20260504172812 22 42 8.0 20.9 0.00 2.08 0.00 84 1014.1
20260504171812 22 76 8.0 19.3 0.00 2.08 0.00 84 1014.4
20260504171312 22 68 9.7 22.5 0.00 2.08 0.00 84 1014.5
20260504170811 22 54 6.4 29.0 0.00 2.08 0.00 84 1014.6
20260504170312 22 72 3.2 14.5 0.00 2.08 0.00 84 1014.7
20260504160311 22 33 9.7 24.1 0.00 2.08 0.00 85 1014.8
20260504150811 22 62 9.7 22.5 0.00 2.08 0.03 85 1015.2
20260504150311 22 43 8.0 22.5 0.00 2.08 0.03 85 1015.3
20260504141312 22 121 4.8 19.3 0.00 2.08 0.03 89 1015.1
20260504140811 22 66 6.4 16.1 0.00 2.08 0.03 89 1015.1
20260504140311 22 39 3.2 9.7 0.00 2.08 0.03 89 1015.2
20260504130812 22 70 9.7 19.3 0.00 2.08 0.03 87 1014.9
20260504130312 22 44 11.3 22.5 0.00 2.08 0.03 87 1014.9
20260504120311 22 34 9.7 27.4 0.00 2.08 0.03 88 1013.9
20260504110311 22 9 3.2 9.7 0.03 2.08 0.03 88 1014.2